Regional Weather Roundup
Issued by NWS

Home | Current Version | Previous Version | Text Only | Print | Product List | Glossary On
Versions: 1 2 3 4 5 6 7 8 9 10 11 12 13 14 15 16 17 18 19 20 21 22 23 24 25 26 27 28 29 30 31 32 33 34 35 36 37 38 39 40 41 42 43 44 45 46 47 48 49 50
000
ASCA44 KEWX 280320
RWRMX

LATIN AMERICA AND CARIBBEAN REGIONAL WEATHER ROUNDUP
NATIONAL WEATHER SERVICE AUSTIN/SAN ANTONIO TX
900 PM CST THU NOV 27 2014

NOTE: "FAIR" INDICATED FEW OR NO CLOUDS BELOW 12,000 FEET WITH NO
SIGNIFICANT WEATHER AND/OR OBSTRUCTIONS TO VISIBILITY.

BAJA CALIFORNIA

CITY           SKY/WX    TMP DP  RH WIND       PRES   REMARKS
LORETO         CLEAR     72  59  64 CALM      29.98R
LA PAZ         CLEAR     70  61  73 NE5       30.01
MEXICALI       PTCLDY    64  34  32 NW8       30.04
S.J. DEL CABO  CLEAR     72  64  78 NW7       29.98R
TIJUANA        CLEAR     68  27  21 CALM      30.05S

NORTHWESTERN MEXICO

CITY           SKY/WX    TMP DP  RH WIND       PRES   REMARKS
CULIACAN       CLEAR     72  61  68 CALM      29.94
DURANGO        CLEAR     48  12  23 N8        30.40R WCI  45
GUAYMAS          N/A    N/A N/A N/A MISG        N/A
HERMOSILLO     CLEAR     66  32  28 CALM      30.01
CD. JUAREZ     CLEAR     52  34  50 CALM      30.24
LOS MOCHIS     CLEAR     66  55  68 NW7       29.96R
OBREGON        CLEAR     70  48  46 NW3       29.95

NORTHEASTERN MEXICO

CITY           SKY/WX    TMP DP  RH WIND       PRES   REMARKS
CHIHUAHUA      CLEAR     43  19  39 S7        30.35  WCI  39
MATAMOROS      CLEAR     59  59 100 CALM      30.42
MONTERREY      CLEAR     55  41  58 S3        30.36R
NUEVO LAREDO   CLEAR     63  46  55 E6        30.37
REYNOSA        CLEAR     61  52  72 E9        30.39
SALTILLO       CLEAR     48  32  53 CALM      30.45S
TORREON        CLEAR     57  23  26 CALM      30.34R
CD. VICTORIA   MOCLDY    54  52  94 W7        30.39

WESTERN MEXICO

CITY           SKY/WX    TMP DP  RH WIND       PRES   REMARKS
AGUASCALIENTES PTCLDY    50   1  13 NE17      30.41  WCI  44
COLIMA         MOCLDY    75  52  43 N12       30.05R
DEL BAJIO      PTCLDY    52  12  20 N5        30.43S
GUADALAJARA    PTCLDY    48  30  49 CALM      30.27
MANZANILLO     MOCLDY    75  70  83 CALM      29.87R
MAZATLAN       CLEAR     61  54  77 N8        29.92R
P. VALLARTA    CLEAR     68  64  88 CALM      29.93R
ZACATECAS      PTCLDY    46  12  25 E5        30.44  WCI  44

CENTRAL MEXICO

CITY           SKY/WX    TMP DP  RH WIND       PRES   REMARKS
MEXICO CITY    MOCLDY    52  19  28 W14       30.43R
MORELIA        PTCLDY    55  25  30 NW3       30.32
POZA RICA      CLOUDY    63  57  82 CALM      30.41R
PUEBLA         PTCLDY    50  19  29 N13       30.43R WCI  45
QUERETARO      MOCLDY    48  30  49 E10       30.38S WCI  44
S. LUIS POTOSI CLOUDY    41  21  45 CALM      30.47R
TAMPICO        PTCLDY    61  54  77 CALM      30.39R
TOLUCA         PTCLDY    46  16  29 S5        30.45R WCI  44

SOUTHERN MEXICO

CITY           SKY/WX    TMP DP  RH WIND       PRES   REMARKS
ACAPULCO       CLEAR     81  77  89 NW5       29.90R
OAXACA         CLEAR     52  39  62 NW6       30.42R
VERACRUZ       CLOUDY    66  57  72 NW6       30.35R
ZIHUATANEJO    PTCLDY    79  73  83 CALM      29.92R

YUCATAN PENINSULA

CITY           SKY/WX    TMP DP  RH WIND       PRES   REMARKS
CAMPECHE       PTCLDY    70  63  78 N12       30.24R
CANCUN         PTCLDY    75  61  60 NE9       30.20S
CHETUMAL       PTCLDY    70  64  83 NW12      30.20R
COZUMEL        PTCLDY    72  63  73 NE12G23   30.20R
MERIDA         PTCLDY    70  61  73 N5        30.27R
MINATITLAN     CLOUDY    68  66  94 S9        30.28
TAPACHULA      CLEAR     81  75  83 CALM      29.90R
TUX. GUTIERREZ CLOUDY    66  52  59 NW12      30.25R
VILLAHERMOSA   CLOUDY    66  64  94 CALM      30.31R

CENTRAL AMERICA

CITY           SKY/WX    TMP DP  RH WIND       PRES   REMARKS
MANAGUA        PTCLDY    81  72  74 NE7       29.89R

CARIBBEAN

CITY           SKY/WX    TMP DP  RH WIND       PRES   REMARKS
ARUBA          PTCLDY    81  73  78 E14       29.86S
KINGSTON       PTCLDY    81  73  78 N7        29.94S
NASSAU         PTCLDY    72  63  73 N16       30.14S
SAN JUAN       CLEAR     77  70  78 CALM      29.97S
SANTO DOMINGO  MOCLDY    73  70  88 NE6       29.97S
ST. CROIX      CLEAR     72  68  88 N5        29.97
ST. MAARTEN      N/A     79  70  73 E3        29.94F
ST. THOMAS     CLEAR     75  70  83 E5        29.96

$$



USA.gov is the U.S. government's official web portal to all federal, state and local government web resources and services.